Location: ??????
(38.1303°N, 24.0039°E)
Time: 19:47:08
(UTC+00:00)

DELTA 2 R/B (1) - Pass Details

Date: 20 October 2021
Orbit: 790 x 802 km, 39.6° (Epoch: 01 December)

Event Time Altitude Azimuth Distance (km) Brightness Sun altitude
Exits shadow 03:48:54 10° 251° (WSW) 2,326 5.4 -10.3°
Maximum altitude 03:51:42 15° 220° (SW) 2,043 5.4 -9.7°
Drops below altitude 10° 03:54:36 10° 188° (S) 2,340 6.0 -9.2°
Sets 03:58:12 0° 164° (SSE) 3,266 7.1 -8.5°
